{"data":{"norad_id":57628,"intl_designator":"2023-121C","name":"HEAD-3C","alt_names":[],"object_type":"PAYLOAD","status":"ACTIVE","operator":null,"country":"PRC","launch_date":"2023-08-14","launch_site_code":"XICLF","launch_vehicle":null,"mission":null,"orbit_class":"UNKNOWN","rcs_meters":null,"size_class":null,"mass_kg":null,"dimensions":null,"purposes":[],"wikipedia_slug":null,"has_3d_model":false,"image_url":null,"decayed_at":null,"tle_current":{"epoch":"2026-09-21T22:00:52.256736Z","epoch_age_seconds":88337,"freshness":"FRESH","line1":"1 57628U 23121C   26264.91727149  .00000427  00000+0  11544-3 0  9997","line2":"2 57628  44.9993 182.3960 0006076  45.2287 314.9065 14.62381041165891","mean_motion":14.62381041,"eccentricity":0.0006076,"inclination_deg":44.9993,"raan_deg":182.396,"arg_perigee_deg":45.2287,"mean_anomaly_deg":314.9065,"bstar":0.00011544,"rev_number":16589,"period_min":98.469547924069,"perigee_km":681.20439345463,"apogee_km":689.78812058856,"semimajor_km":7063.6332570216,"source":"CELESTRAK","updated_at":"2026-09-22T09:00:26.242254Z"}}}